Location: Głubczyce
(50.2020°N, 17.8242°E)
Time: 16:40:43
(UTC+01:00)

ISS - Visible Passes

Search period start: 20 November 2017 00:00
Search period end: 30 November 2017 00:00
Orbit: 402 x 407 km, 51.6° (Epoch: 21 November)

Date Brightness Start Highest point End Pass type
(mag) Time Alt. Az. Time Alt. Az. Time Alt. Az.
28 Nov -1.6 18:16:21 10° SSW 18:17:35 18° SSW 18:17:35 18° SSW visible
29 Nov -2.0 17:24:41 10° S 17:27:00 18° SE 17:27:28 17° SE visible
29 Nov -0.5 18:59:47 10° WSW 19:00:07 12° WSW 19:00:07 12° WSW visible
